User: anonymous   Login
Location: Asheville, NC
(35.6000°N, 82.5500°W)
Time: 20:50:20
(UTC-04:00)
Language:

NUDT-PHONESAT - Orbit

View from above orbital plane
View from above orbital plane
View from above satellite
View from above satellite

Ground track
Ground track

The orbit data is extracted from the following two-line orbital elements,

1 40900U 15049B   18198.49420964  .00001757  00000-0  81206-4 0  9998
2 40900  97.4406 206.3976 0011645 285.6940  74.3011 15.21450113156527
Epoch (UTC): 17 July 2018 11:51:39
Eccentricity: 0.0011645
inclination: 97.4406°
perigee height: 493 km
apogee height: 509 km
right ascension of ascending node: 206.3976°
argument of perigee: 285.6940°
revolutions per day: 15.21450113
mean anomaly at epoch: 74.3011°
orbit number at epoch: 15652

The dashed part of the orbit path shows where the satellite is in the earth's shadow,  

DLR